Fort McMurray Airport
CYMM : now visible

Airfield :











YOU CAN JOIN US ON...

 
LOGIN :

Register | Disclaimer

   EN    FR    IT 

 









Legend :    VFR   Marginal VFR   IFR   Intensive IFR   Very Intensive IFR
Visi :
Ceiling :
>= 8 km
>= 3000ft
5 to 8 km
1000 to 3000 ft
1500m to 5 km
500 to 1000 ft
800 to 1500m
200 to 500 ft
< 800m
< 200 ft
Symbols :   Thunderstorms  Fog  Heavy snow  Heavy precipitations  Wind > 20 kt






- Airport Elevation : 1211 ft
- IATA code : YMM


CYMM - Fort McMurray

CURRENT METAR :
  • 050100Z AUTO 12007KT 9SM OVC060 M03/M14 A3000 RMK SLP194

EXPIRED METARs :
  • 050000Z AUTO 12006KT 9SM OVC060 M02/M14 A3000 RMK SLP195
  • 042300Z AUTO 15006KT 9SM OVC060 M02/M15 A3001 RMK SLP195

TAF TAF CYMM
Valid from the 05 at 01:00 until the 05 at 13:00 UTC


050038Z 0501/0513 12006KT P6SM BKN060 BKN090 RMK FCST BASED ON AUTO OBS. NXT FCST BY 050700Z



MET'MAP, your aeronautical weather chart ! - Copyright ORBIFLY December 2007 - Disclaimer

ORBIFLY MET'MAP TEAM :

Programming & Development : Alexandra Zaïnal
Concept & original design : Baudouin d'Aumeries
Assistance for programming : Marc-Olivier Méhu
Technical & hardware support : Manuel Goepfert

Contact : metmap@orbifly.com




SOURCES & CREDITS :

   NOAA       Earth
Advisory